Flag for Kazakhstan Weather past 2 weeks in Aqtobe, Kazakhstan

Now
34 °F

Broken clouds.


Feels Like: 21 °F
Forecast: -4 / 19 °F
Wind: 26 mph from Southwest

Location: Aktjubinsk

Current Time: Dec 26, 2014 at 11:04:29 AM

Latest Report: Dec 26, 2014 at 10:30 AM


Visibility: N/A

Pressure: 29.59 "Hg

Humidity: 93%

Dew point: 32 °F

Location of AqtobeLocation

Historic Weather in Aqtobe — Graph

°F

Aqtobe temperature yesterday

Maximum temperature yesterday: 32 °F (at 3:00 AM)
Minimum temperature yesterday: 21 °F (at 8:00 PM)
Average temperature yesterday: 26 °F

Past Weeks' High & Low Weather Summary

 TemperatureHumidityPressure
High36 °F (Dec 22, 9:00 PM)100% (Dec 14, 9:30 AM)30.54 "Hg (Dec 14, 9:30 AM)
Low-6 °F (Dec 17, 5:00 AM)50% (Dec 12, 4:00 PM)29.39 "Hg (Dec 24, 10:30 PM)
Average21 °F88%30.15 "Hg
* Reported Dec 11 10:00 AM — Dec 26 10:00 AM, Aqtobe, Weather by CustomWeather, © 2014

Note: Actual official high and low records may vary slightly from our data, if they occured in-between our weather recording intervals... More about our weather records

Advertising

Aqtobe weather history for previous 24 hours

 ConditionsComfort  
Time TempWeatherWind HumidityBarometerVisibility
10:00 AM
Dec 26
34 °FPartly sunny.26 mph87%29.59 "HgN/A
9:30 AM34 °FPartly sunny.26 mph87%29.56 "HgN/A
9:00 AM36 °FMostly cloudy.31 mph93%29.56 "HgN/A
8:30 AM36 °FDrizzle. Low clouds.22 mph93%29.53 "Hg4 mi
7:30 AM36 °FLow clouds.22 mph87%29.50 "HgN/A
7:00 AM36 °FOvercast.22 mph87%29.50 "HgN/A
6:30 AM34 °FLight snow. Low clouds.22 mph100%29.50 "HgN/A
6:00 AM34 °FLight snow. Low clouds.29 mph100%29.50 "Hg6 mi
5:30 AM34 °FLight snow. Overcast.24 mph100%29.47 "Hg5 mi
5:00 AM32 °FSnow. Low clouds.24 mph100%29.50 "Hg2 mi
4:30 AM30 °FSnow. Ice fog.24 mph93%29.50 "Hg1 mi
4:00 AM27 °FHeavy snow. Ice fog.22 mph100%29.53 "Hg1 mi
3:30 AM25 °FHeavy snow. Ice fog.17 mph93%29.56 "Hg1 mi
3:00 AM25 °FSnow showers. Ice fog.20 mph93%29.56 "Hg1 mi
2:30 AM23 °FHeavy snow. Ice fog.15 mph100%29.59 "Hg1 mi
2:00 AM23 °FSnow showers. Mostly cloudy.15 mph100%29.62 "Hg1 mi
1:30 AM23 °FLight snow. Mostly cloudy.17 mph93%29.65 "Hg5 mi
1:00 AM23 °FMostly cloudy.13 mph93%29.68 "HgN/A
12:30 AM23 °FMostly cloudy.17 mph86%29.68 "HgN/A
12:00 AM23 °FOvercast.15 mph86%29.71 "HgN/A
11:30 PM
Dec 25
23 °FOvercast.15 mph86%29.74 "HgN/A
11:00 PM21 °FOvercast.13 mph93%29.74 "HgN/A
10:30 PM21 °FLight snow. Overcast.17 mph86%29.74 "HgN/A
10:00 PM21 °FLight snow. Overcast.17 mph86%29.74 "HgN/A
9:30 PM21 °FLight snow. Overcast.20 mph86%29.74 "HgN/A
9:00 PM21 °FLight snow. Overcast.20 mph86%29.74 "HgN/A
8:30 PM21 °FOvercast.17 mph86%29.74 "HgN/A
8:00 PM21 °FOvercast.17 mph86%29.74 "HgN/A
7:30 PM23 °FSnow flurries. Overcast.17 mph86%29.74 "HgN/A
7:00 PM23 °FSnow flurries. Mostly cloudy.17 mph86%29.71 "HgN/A
6:30 PM23 °FSnow flurries. Partly cloudy.22 mph86%29.71 "HgN/A
6:00 PM23 °FPassing clouds.22 mph93%29.68 "HgN/A
5:30 PM23 °FSnow flurries. Partly cloudy.20 mph93%29.68 "HgN/A
5:00 PM23 °FSnow flurries. Broken clouds.20 mph93%29.65 "HgN/A
4:30 PM23 °FSnow flurries. More clouds than sun.20 mph93%29.65 "HgN/A
4:00 PM25 °FMore clouds than sun.22 mph86%29.62 "HgN/A
3:30 PM25 °FOvercast.22 mph86%29.59 "HgN/A
3:00 PM25 °FSnow flurries. Overcast.17 mph86%29.59 "HgN/A
2:30 PM25 °FSnow flurries. Mostly cloudy.22 mph86%29.56 "HgN/A
2:00 PM25 °FSnow flurries. More clouds than sun.24 mph86%29.56 "Hg4 mi
1:30 PM25 °FSnow flurries. More clouds than sun.22 mph86%29.53 "Hg3 mi
1:00 PM25 °FSnow flurries. Broken clouds.17 mph93%29.53 "Hg4 mi
12:30 PM25 °FSnow flurries. Broken clouds.15 mph86%29.53 "HgN/A
12:00 PM25 °FSnow flurries. Broken clouds.20 mph86%29.50 "Hg2 mi
11:30 AM25 °FSnow flurries. Overcast.20 mph86%29.50 "Hg4 mi
11:00 AM25 °FSnow flurries. Overcast.17 mph86%29.50 "HgN/A
Weather by CustomWeather, © 2014

See weather overviewHow to use our weather pages